Location: Unspecified
(0.0000°N, 0.0000°E)
Time: 00:55:23
(UTC+00:00)

QIANFAN-31 - Pass Details

Date: 07 March 2026
Orbit: 1037 x 1049 km, 89.0° (Epoch: 14 April)

Event Time Altitude Azimuth Distance (km) Brightness Sun altitude
Rises 05:27:12 0° 8° (N) 3,778 ? -10.9°
Reaches altitude 10° 05:29:44 10° 10° (N) 2,828 ? -10.3°
Maximum altitude 05:36:10 71° 93° (E) 1,092 ? -8.7°
Drops below altitude 10° 05:42:38 10° 176° (S) 2,842 ? -7.1°
Sets 05:45:11 0° 178° (S) 3,798 ? -6.4°
